GFSSE_con_sbcape_132.txt.gz
CAPE
748 1081 1320 1477 1752 1874 1778 1943 2031 1931 1879 1762 1627 1614 1753 1726 1621 1726 1724 1689 1597 1577 1505 1568 1677 1401 1176 1742 1696 1531 1499 1569 1397 1225 1133 1243 1250 1329 1347 1257 1780 1161 1708
772 1043 1671 1900 1919 2166 2067 2162 2025 1880 1751 1291 1736 1651 1712 1699 1764 1758 1831 1584 1592 1573 1523 1523 1560 1591 1496 1480 1763 1702 1664 2038 1822 1086 1240 1217 1221 1042 701 734 1790 1457 1737
842 1204 1704 2308 2222 2026 2297 2239 1980 1779 1547 1647 1919 1710 1800 1770 1678 1827 1819 1703 1564 1594 1738 1559 1378 1586 1412 1498 1659 1700 1671 1664 1697 1607 1680 1244 1600 1688 1737 1760 1531 878 1005
943 1150 1572 2175 2119 2254 2221 2308 1962 1297 1381 1833 1811 1784 1735 1610 1693 1655 1691 1698 1573 1722 1954 1855 1740 1682 1750 1993 1945 1843 1933 1792 1455 1750 634 451 982 1697 1592 1784 1705 1632 1679
1098 1228 2022 2310 2264 2151 2170 2205 1641 2049 1762 1911 1857 1815 1909 1758 1837 1630 1350 1442 1603 1679 1843 1834 2028 2135 2004 1893 1990 1805 1721 1242 807 1261 1092 1025 819 1791 1872 1552 1960 1773 1987
1172 1486 1974 2193 2143 2313 2283 1869 2033 2015 1914 2019 1821 1784 1609 1700 1899 1884 1512 1556 1611 1489 1633 1586 1617 1940 2071 1879 1805 1829 1516 1290 1824 1258 1137 1100 1207 1565 1719 1793 1700 1767 1839
1092 1294 1932 2306 2182 2031 1778 2204 2179 2152 1992 2045 1832 2006 1908 1961 1625 1877 1936 1527 1612 1364 888 2009 2163 2124 2159 1847 1657 1717 1573 1145 795 767 933 1743 2238 1680 1392 1714 1211 1305 1469
905 821 1121 2298 2182 2175 1867 2254 2282 2265 2168 1922 1917 2050 1859 1928 1883 1502 1928 1898 1857 1840 1879 2055 2241 2153 1695 1785 1583 1290 781 278 838 1184 1350 1494 1758 1365 768 745 947 814 569
519 850 952 1511 2016 2185 1965 2052 2215 2148 1457 1294 1838 1877 1921 1912 1594 1500 1553 1627 1756 1623 1700 1998 2061 2123 2100 1601 1639 1741 1369 945 209 412 282 603 1198 1380 1141 1071 837 678 587
618 652 1408 1059 1402 1512 1339 2084 1739 1884 2066 2211 2024 1892 2092 1697 1610 1254 1724 1495 1524 1524 1652 1861 1900 2137 2062 1694 1289 1121 772 412 14 134 231 890 1207 802 416 431 482 620 836
922 994 1329 702 1479 2041 1552 1441 1417 1720 2223 2360 2328 1829 1780 880 862 1325 1460 1344 1423 1441 1483 1565 1835 1834 1934 1972 1333 813 687 0 0 51 8 554 510 379 417 478 559 690 930
735 1072 1290 1017 1359 1051 1138 1150 1511 1227 1848 2035 1879 1616 950 991 1677 1260 1959 1903 1905 1825 1988 2057 1985 1428 1178 1106 1492 1776 224 28 17 53 17 551 556 553 570 593 731 941 1285
672 760 800 1103 1328 1369 1489 837 1035 1167 1878 2229 1844 1180 1112 1072 1391 1080 1162 1284 1178 1447 913 921 1211 1205 1267 840 835 397 269 40 114 55 41 499 691 862 831 954 1189 1520 1751
873 710 1046 1082 1596 1629 819 607 874 1187 1135 1087 1567 1714 1746 1395 1605 1474 1327 1357 1252 1030 1286 1377 1198 1790 1509 1292 758 615 303 47 4 79 43 477 787 1033 1378 1613 1722 1914 2162
796 813 936 966 1515 1262 1211 894 1036 1142 786 1131 1247 1684 1505 1606 1734 1557 1605 1374 1410 1404 1563 1740 1716 1800 1434 830 765 779 277 238 88 171 308 338 938 1140 1311 1493 1778 2187 2440
712 726 818 927 1343 1293 1184 1294 1149 1014 831 863 875 1378 1748 1438 1722 1528 1462 1364 1639 1810 1884 1909 2110 1621 804 575 833 583 374 386 309 311 462 522 490 1135 1447 1517 1733 1889 1965
639 690 754 756 986 1269 1233 1190 716 739 622 780 924 1427 1544 1878 2001 1702 1666 1467 1701 2107 2448 2180 1842 1477 670 484 867 875 727 510 393 435 465 527 691 559 577 877 1216 1037 1289
421 785 714 432 739 975 955 852 479 430 671 689 847 1135 1660 2062 2057 2175 1423 1521 2053 2066 1993 2023 1254 901 759 455 603 564 797 817 1170 1141 872 869 892 921 910 1142 1202 1034 1431
528 938 1005 848 770 884 1170 922 638 746 637 595 889 1201 2029 1968 2324 1805 1545 1855 2397 2053 2160 1565 1237 875 851 457 443 630 766 815 993 714 1161 1413 1275 1353 1550 1530 995 1427 1635
751 1093 1012 1225 1095 1033 1055 879 486 471 566 790 1044 1233 2071 1885 2240 2365 1633 1830 2269 2106 2255 1934 1630 1342 927 561 176 473 732 932 1018 953 1039 1167 1403 1721 1634 2138 2470 2321 2189
762 1042 1012 1242 1635 1067 534 388 473 457 655 886 1189 1767 1972 1642 1949 2560 1437 1671 2150 2084 3146 2652 2182 2238 1506 1839 835 634 863 1128 1092 1147 1287 1335 1488 1544 1734 1974 2517 3188 2733
618 815 1125 1293 1634 1485 941 746 601 606 777 1126 1226 1668 1771 1469 1910 1902 2056 1351 2271 2061 3054 2965 2888 1492 1583 2020 1239 639 450 855 810 811 1304 1496 1795 1579 1362 1494 2124 3365 2737
703 707 1078 1217 1560 1657 1170 1394 1678 1809 2124 1563 1537 1466 1610 1391 1816 2174 2113 1744 2148 2454 2016 2711 2591 2564 1431 1997 2703 1930 550 426 922 1281 1603 1419 1752 1336 1484 1381 1342 2117 2420
678 774 877 1440 1488 1709 1660 1305 1318 709 689 689 977 1071 1593 1882 2087 1926 1945 1526 1962 1873 2338 2402 1977 2921 3084 1614 1660 1525 2377 2415 950 911 1372 1286 1194 992 1204 1151 932 1369 1643
628 692 757 1351 1676 1304 1755 1469 1690 1073 824 916 1028 1242 1547 2204 1959 1877 2076 1619 1589 1435 2477 2727 2286 2898 2253 2074 1601 1556 1839 1435 1774 1093 671 940 1084 1103 1083 924 1276 1341 1606
595 634 664 1230 1453 1255 1541 1371 1491 1318 932 876 1260 1205 1087 1143 1470 1591 1907 2142 1783 1105 2320 2373 2165 2610 3135 2684 1950 1985 1494 1427 1234 1103 1062 1239 1077 545 1024 1255 1664 1479 1336

GFSSE_con_sbcape_138.txt.gz
CAPE
467 664 1731 1066 808 679 333 275 439 1178 1343 1452 1541 1505 1661 1578 1728 1703 1615 1568 1611 1590 1973 1686 1699 1879 1383 1035 1194 1231 1327 1859 1812 1673 1644 1517 1328 2158 2119 1714 2372 1613 2166
572 619 1962 1631 1122 1029 1170 903 1188 1337 1527 1599 1618 1562 1728 1650 1613 1914 1658 1528 1636 1786 1774 1756 1790 1539 1581 1557 1725 1862 1765 1928 2228 1292 793 1100 1278 1010 1778 2323 2230 1628 1821
711 924 1176 2124 1694 1450 1156 1446 1872 1502 1666 1657 1660 1788 1852 1829 1805 1740 1570 1475 1560 1681 1703 1696 1728 1821 1779 1602 1414 1351 1493 1553 1685 1847 2581 1103 1665 1806 1129 1194 1078 1131 1196
718 624 906 2303 2366 1906 1622 2143 1859 1882 1795 1729 1847 1850 1942 1847 1871 1661 1576 1590 1506 1546 1665 1710 1732 2029 2031 1928 1824 1783 1765 1385 1275 1613 1647 461 947 1686 1740 1866 1868 1866 1864
802 777 1664 2350 2340 2179 1974 2224 2241 1720 1848 1805 1849 1904 1948 1786 1785 1919 1854 1883 1888 2139 1963 2008 2083 2224 2033 1833 1664 1475 1339 1296 1171 1108 1148 1108 1319 1854 2108 2262 2190 2300 2269
562 1111 2051 2573 2188 2044 2177 2551 2021 1982 1935 2007 1920 2087 2076 2266 1829 1922 1917 1933 1764 1941 1911 1984 2088 1956 1515 1499 1371 1539 1796 1841 2042 946 822 1471 1545 1834 1919 1865 1884 1833 1874
862 1228 1849 2616 2799 2274 2018 1996 2488 2053 1877 2441 2311 2656 2069 1891 1698 1455 1405 1600 1784 2080 2062 2233 2078 1731 1598 1507 1468 1406 1212 1786 1704 1400 775 808 1430 2136 1452 1529 1395 972 728
886 1099 1563 2542 2701 1953 1950 1935 2608 2269 2373 2536 2689 2477 2280 2154 1624 2048 1899 2130 2201 2060 1755 1568 1875 1618 1409 988 837 871 1060 1707 1521 1484 1115 1005 1415 1064 904 704 614 607 650
652 800 1260 1050 1907 1852 2426 2759 2271 2155 2407 2340 2299 2548 2582 2125 2190 2463 2774 2233 2104 2036 2031 2126 1572 1330 1467 1408 1112 815 914 1879 772 405 329 818 1769 1121 869 808 691 831 1025
337 523 1017 1269 905 1338 1840 2132 1647 1935 1879 2003 2043 1944 2497 1887 1945 2005 2468 2345 2008 1956 1945 2021 2051 1470 1093 788 669 443 762 1104 481 110 336 1171 1163 577 594 684 773 901 1110
376 538 283 1012 1251 1761 2147 1778 1731 1880 1918 2413 2135 2100 2067 1201 1751 1746 2147 1853 1652 1759 1832 1853 2026 1945 1601 1243 1243 879 729 533 42 11 211 1018 977 617 664 726 861 1102 1418
831 128 7 52 995 1387 713 2243 2335 1783 1746 1958 1943 2081 1850 1839 2218 1161 1694 1675 1540 1546 1658 1911 2005 2171 2116 961 1196 1496 1195 493 0 0 288 1139 1097 814 824 956 1172 1540 1956
395 395 0 94 781 1132 1829 1713 1945 1914 1731 1953 1491 2056 2079 926 1049 1072 1694 1430 1629 1929 1570 2001 2119 1770 1511 2120 1497 1436 482 311 0 17 554 1354 1097 1064 1184 1473 1839 2064 2426
650 784 628 687 429 1728 1943 1407 1529 1632 1486 1434 1740 2242 2757 1705 1359 832 1467 1791 2237 1957 2144 2379 1549 1814 1601 1851 274 207 153 0 52 50 509 1355 1160 1254 1596 1880 2079 2229 2646
574 633 795 73 0 2175 2406 1461 1058 1629 1163 1134 1596 1715 2440 2338 2448 2042 2371 1360 2241 1404 2168 1581 2688 1658 1687 1187 667 352 113 254 97 77 132 1493 1361 1366 1467 1782 1944 2092 2608
845 800 1032 512 904 1614 1476 188 595 1008 922 1012 1387 1384 2404 1159 2339 2461 2475 1170 1077 2888 1203 2197 1689 2240 2033 1047 935 527 439 481 874 308 202 665 1788 1954 2229 2377 2435 2423 1872
733 704 872 941 768 1467 833 227 182 1185 844 976 1826 2493 1575 1787 1258 3447 441 2372 2831 3056 2477 2383 2604 1794 1091 811 1143 946 825 734 846 1114 464 295 585 2050 2345 2654 2524 2271 1768
502 629 854 466 728 1556 1959 1929 1318 1237 1660 1515 1660 2188 2351 1386 3151 1321 1689 1292 1507 2672 3018 2649 2057 1984 799 943 1249 853 838 1007 1192 1209 1181 1185 1008 580 1789 2439 2281 1910 1683
426 1087 1203 1100 817 1389 2196 1950 2280 2094 2659 2056 1386 1934 2736 2544 2866 3774 1931 3388 3495 3338 1585 2644 2395 2178 1421 1117 1014 1039 1228 1235 1576 656 1392 1229 1506 1236 1401 1833 2159 1725 1460
1024 1325 1369 1145 1181 1966 1935 2762 2138 1730 1403 2577 2408 1592 3075 2959 2671 2055 2021 3375 359 1357 2152 2122 4237 3304 2342 1475 438 522 944 1054 1324 1237 975 1011 2034 1729 2254 2971 2673 1578 1937
976 804 1203 931 1553 1669 1797 1786 1702 1282 2378 2454 2250 3315 697 613 2514 2435 2988 551 0 0 97 3578 2569 2717 3020 2007 2810 1096 1330 991 1011 1001 820 1155 1841 1462 1658 2064 3294 3089 2863
1137 1198 1611 1709 2309 1526 2275 2074 1621 1696 1174 2425 2833 2690 1010 643 2599 2625 2891 1010 18 0 180 3421 4200 3812 2775 1964 2604 2886 1728 1369 822 374 552 599 1575 1114 1706 2212 3366 2799 2676
1253 1758 1806 1989 1754 1834 2241 2100 2788 2744 3092 2129 2400 2371 1924 2357 2607 3088 2769 2837 1398 334 14 2606 3116 838 1099 2697 2513 2951 2466 583 288 42 0 0 4 1809 1556 1835 1804 2732 2519
1289 1458 2032 1936 2239 2025 2210 1589 2099 2193 1859 1640 2263 2206 2596 2511 2453 2855 3115 2666 206 86 1 663 1621 0 0 1325 2828 1798 1504 4 166 0 40 0 0 59 2007 1202 1538 1782 2071
1252 1289 1857 1953 2256 1862 2682 1880 2325 2139 1867 1666 1895 3013 2014 3257 2929 2358 3035 2366 2067 84 11 317 3243 2746 2455 1674 3451 1782 2562 2077 563 12 72 0 119 192 1640 1462 926 1991 2051
406 1211 1821 1915 1950 2549 2395 2048 2408 2488 2149 1758 1718 2362 2180 2271 2371 2923 3027 3044 2857 3003 2860 2926 3529 3335 4218 4094 4134 3779 2632 2295 1825 1503 1565 440 133 402 0 0 0 615 2002

GFSSE_con_sbcape_141.txt.gz
CAPE
444 825 1608 889 595 532 536 422 733 866 1312 1143 1432 1508 1554 1642 1546 1648 1681 1686 1402 1708 1381 1342 1564 1378 1506 1731 1839 1886 1909 1966 1956 1558 1417 1574 1425 2041 2253 1952 1732 1606 1841
454 1055 1889 1226 662 581 989 1092 1230 1441 1664 1595 1452 1472 1513 1617 1631 1687 1563 1606 1662 1645 1692 1727 1568 1488 1467 1324 1238 1185 1342 1735 2028 1388 1567 1238 1423 2039 2357 1455 1557 1530 1744
580 1040 1502 1899 1344 1125 1322 1927 1365 1634 1681 1659 1698 1718 1745 1696 1554 1451 1437 1477 1575 1580 1627 1827 1742 1708 1755 1368 1656 1609 1664 1442 1862 1664 1352 1241 761 1054 1073 1246 1410 1393 1184
751 786 1491 2382 1756 1423 2238 1944 1798 1791 1696 1833 1744 1816 1942 1811 1635 1501 1353 1549 1710 1598 1592 1623 1725 1764 1602 1631 1582 1302 1116 963 1543 2154 755 784 1012 1817 1859 1814 1717 1718 1775
586 921 1624 2238 1984 1810 1896 2001 1851 1906 1896 1922 1892 1929 1809 1791 1891 1769 1639 1717 1867 1833 1926 2062 2033 1963 1677 1621 1552 1246 675 885 1013 1144 319 673 1178 2018 2072 2245 2280 2027 1882
1125 1530 2328 2236 1700 1993 2055 1822 1951 1899 1972 2091 1962 1862 1944 1962 1953 1919 1884 2098 1998 1950 1810 2234 2006 1648 1552 1498 1402 982 1339 1685 1474 645 1071 1762 1340 1971 1948 1759 1705 1825 1902
1246 1743 1903 2723 2552 1897 2017 1982 2051 1933 1968 2119 2097 2079 1946 1772 1690 1719 1832 1876 2034 2027 2064 1800 1580 1406 1364 1532 1370 1155 1530 2541 306 375 655 995 1585 1761 1508 1386 1030 772 666
1327 1532 1610 2433 2184 2140 2069 2017 1961 1942 2087 2441 2338 2025 1732 1737 2122 2256 2489 2036 1930 1743 2160 1805 1512 1294 1040 735 704 572 1115 2081 704 612 587 614 1313 1327 806 656 602 643 681
1192 1393 1490 1484 1846 1980 2017 2062 2356 2195 2021 2124 2317 2141 2139 2319 2255 2538 2930 2860 1903 1661 1184 1232 1435 1337 1211 1035 733 811 1184 2010 196 228 429 840 1322 797 785 758 804 948 1116
1020 812 1255 1285 1231 1457 1700 2062 2133 2022 2146 1998 2016 1695 2346 2153 2084 2029 2676 2704 2023 1897 1937 1660 1148 850 773 740 615 534 935 832 0 224 534 711 1290 861 779 835 963 1069 1237
118 309 870 832 851 1219 1190 1367 1900 1905 2042 2099 1919 1942 2103 1194 1278 1458 1881 2173 1927 1825 1964 2023 1959 1460 1185 900 901 999 584 120 0 100 306 1025 1204 800 862 917 1036 1255 1516
104 365 792 626 977 1157 1279 1160 1449 1403 1355 1338 1433 1424 921 984 1062 1101 1608 1796 1733 1777 1825 1890 2167 1995 1618 992 603 1155 650 372 0 7 270 1224 1471 961 1019 1122 1330 1759 2186
163 248 102 231 64 443 1152 1294 1295 1220 1061 1291 1107 1124 930 1035 1322 1185 1157 1396 1252 1780 1170 2072 2003 1904 1877 1603 552 540 703 14 0 15 617 1405 1727 1220 1317 1529 1897 2380 2692
24 11 53 20 55 614 918 948 1143 1087 786 466 819 761 942 215 484 660 908 1022 920 774 1098 1129 1249 1301 1154 1269 1481 942 141 0 0 12 555 1704 1942 1656 1811 2067 2295 2596 2822
60 153 54 343 267 886 1003 605 741 899 806 580 595 478 1154 842 615 519 742 977 1044 1041 999 539 737 820 478 389 572 87 0 0 0 0 129 1666 1970 2291 2068 2115 2409 2702 2884
369 324 79 32 0 461 289 16 262 755 409 258 725 421 1600 467 829 1245 1079 227 619 937 893 827 641 1305 476 163 81 0 0 11 0 0 0 587 1928 2108 2410 2687 3112 3052 2920
539 317 0 0 61 168 68 0 16 212 362 489 1166 821 1288 855 704 1103 511 828 1224 1360 1191 1108 976 1190 271 285 101 126 68 120 122 46 27 33 500 2261 2494 2801 3014 2810 2386
272 581 829 456 359 52 29 19 219 472 541 950 902 1306 0 214 1808 706 1531 497 373 1674 1437 1184 1287 902 120 42 81 230 81 274 289 271 183 127 82 159 1250 2634 2435 2274 2002
257 325 470 265 570 25 45 60 210 994 878 885 875 840 364 974 1436 881 762 3 858 897 589 1297 1245 871 48 90 170 233 166 201 224 407 333 231 344 317 385 974 2036 1942 2633
349 282 300 491 232 974 813 758 1118 839 780 671 891 1324 1363 1710 645 846 458 0 213 320 23 125 897 1037 319 385 351 205 272 227 260 301 57 299 345 593 621 713 1127 1423 1687
462 433 370 340 660 1084 743 1075 589 278 1113 1369 1434 576 0 22 1107 544 748 0 0 0 0 60 138 1405 1266 687 1008 135 250 173 0 0 0 0 0 169 989 1839 1671 1434 930
362 336 576 563 824 721 697 986 357 330 551 1179 1401 0 0 26 554 1356 65 0 0 0 60 0 1072 2153 1079 924 753 1379 567 338 0 116 0 0 0 0 209 683 1762 1375 747
148 499 547 608 703 590 876 1307 1105 1091 1373 981 860 846 245 593 1365 1564 617 279 225 228 294 3 315 38 43 19 1141 707 645 41 0 0 0 0 0 0 1 229 1367 1534 1053
470 882 852 798 741 667 498 756 1041 1269 675 779 855 1041 852 1036 1452 1742 710 398 174 0 0 0 348 0 0 630 1360 1028 276 0 0 0 7 0 0 0 0 66 78 1588 1042
895 956 946 866 842 909 929 1195 627 1146 710 555 946 1373 1515 1248 967 1370 1037 279 114 0 0 39 1135 1026 718 609 1478 1219 246 1 4 8 0 24 16 5 6 0 0 761 1293
727 977 969 935 937 911 1039 1264 1099 961 967 1044 911 1233 1277 923 926 1758 1461 1065 688 370 325 352 1236 1781 956 7 1685 2234 1873 1069 36 83 111 0 49 10 0 0 139 369 273

GFSSE_con_sbcape_147.txt.gz
CAPE
94 215 896 405 811 665 605 575 812 1590 1728 1761 1853 1695 1694 1830 1754 1662 1713 1190 1744 1192 1239 1362 1612 1641 1629 1662 1605 1686 1824 1832 1806 1849 1856 2110 1969 2127 2118 1740 1615 1755 1912
220 497 1063 973 955 745 708 997 1523 1593 1324 1751 1872 1731 1844 1777 1782 1291 1566 1129 1387 1573 1550 1529 1630 1589 1659 1845 1839 1554 1715 2222 2496 2153 2011 2034 1957 2007 1911 2136 1949 2026 2293
481 793 901 1213 1152 1073 1250 1538 1577 1027 1087 1843 1800 1988 1820 1715 1742 1599 1782 1719 1758 1398 1313 1393 1480 1390 1465 1296 1170 1620 1842 1884 1724 1567 1631 961 1406 1645 1430 1554 1158 1530 1568
588 904 1059 1649 1301 1349 1668 1820 1982 1927 1978 2023 2086 1792 1662 1781 1659 1673 1774 1846 1968 1945 1717 1761 1455 1555 1651 1653 1723 1576 1809 1853 1689 1539 893 1098 1129 1313 1305 1431 1474 1426 1223
779 945 1246 1628 1639 1462 1621 1958 1955 1766 2027 1990 2022 1879 1751 1558 1793 1888 1659 1786 1888 1884 1798 1589 1519 1533 1510 1428 1327 1449 1765 1776 1525 846 1015 1323 1701 2267 2304 2241 1777 2145 2368
1021 1141 1351 1705 1633 1967 1457 2002 2086 2022 1957 2026 1952 1899 1830 1635 1725 2027 2182 2131 2255 2242 2084 1732 1712 1690 1497 1448 1393 1453 1566 1532 1226 1060 1591 1976 1824 1941 2222 2421 2234 2047 1833
1097 1386 1428 1903 2011 2050 2108 2126 2080 2040 1970 1995 2003 2003 1993 2079 2130 2177 2147 2126 2259 2369 2018 1775 1746 1628 1371 1330 1543 1799 1973 1797 981 1124 1227 1288 1612 1977 1858 1500 1134 906 820
1430 1467 1534 2030 2034 2013 2022 1981 2036 1910 1817 1819 2022 1947 1927 2128 2201 2088 2056 2109 2199 1999 1764 1648 1609 1427 1633 1279 998 2949 2414 1693 1004 900 1028 1191 1875 1510 1087 927 922 953 979
1558 997 1145 1446 1758 2102 2094 2019 1984 1800 1766 1959 1945 1951 1847 2153 2032 2115 2158 2212 2036 1750 1512 1503 1449 1352 1042 986 1096 1931 1884 1251 340 423 649 816 1579 1037 1003 1083 1166 1196 1456
1237 1144 1195 1361 1500 1237 1613 1829 1916 2022 1942 1922 1739 2011 2152 2346 2187 2053 2396 1524 1063 1192 1208 1159 1061 1075 966 747 768 1317 2060 1585 157 141 398 459 1390 1273 1290 1205 1361 1501 1567
1111 1048 1077 1013 1113 1205 1307 1655 1810 2022 1996 1817 2025 2137 2264 1214 1514 1572 2073 1806 1653 1363 1144 994 918 793 843 1053 1190 1159 696 34 123 248 371 1365 1724 1441 1312 1372 1416 1391 1746
860 936 910 960 1127 1109 1556 1316 1243 1560 1305 1081 1098 1491 856 712 871 1194 1866 1935 1778 1829 1864 1896 1849 1502 1024 224 10 579 267 0 32 33 136 1549 1472 1493 1488 1495 1555 1748 1980
769 1011 725 847 989 911 832 955 886 865 815 740 825 977 589 631 711 806 752 759 924 1536 991 1095 1206 1345 1393 1049 762 217 317 132 0 0 119 1743 1502 1599 1709 1701 1777 2057 2422
599 748 681 605 624 547 647 947 905 851 624 576 594 652 544 408 547 376 392 662 565 455 676 523 526 697 752 687 751 851 362 28 0 0 4 1539 2029 1526 2027 2134 2234 2525 2861
509 490 640 280 247 288 668 748 712 652 665 533 420 518 475 321 419 95 162 116 230 288 244 332 471 570 626 658 627 652 616 0 0 0 0 673 2105 2008 1995 2478 2665 2828 2941
345 157 238 260 302 301 549 484 467 445 369 133 236 489 546 221 198 402 161 148 198 202 236 313 425 298 217 53 0 165 273 0 0 0 0 0 798 2677 2141 2072 2306 2622 2685
197 31 179 273 421 507 407 305 276 425 237 51 167 701 412 240 775 308 285 102 236 683 556 362 281 348 394 39 1 0 12 0 0 0 0 0 1 339 714 1493 3049 3270 2977
19 9 119 348 401 271 151 43 183 184 101 19 338 682 341 442 761 413 755 1008 748 441 567 714 584 427 0 0 0 0 0 0 0 0 7 35 32 142 259 469 878 2456 2495
0 3 67 8 270 67 8 0 28 175 177 188 404 515 250 838 612 164 80 376 138 34 70 225 408 543 506 55 0 0 0 0 0 0 33 97 419 494 499 805 1690 1753 2467
4 8 30 0 200 15 0 0 0 60 232 387 347 159 1008 810 319 0 0 33 15 3 226 340 704 501 73 20 25 8 4 0 0 0 0 38 307 652 822 674 662 1152 1587
33 22 34 46 129 1 5 29 41 71 381 262 195 805 796 689 457 236 0 0 0 120 125 379 808 1089 681 154 24 14 0 0 0 0 0 0 124 330 674 1010 761 498 568
92 72 111 238 120 0 22 319 170 12 512 314 412 299 393 272 24 226 0 0 0 35 97 374 74 793 85 176 520 129 88 42 0 0 0 0 0 30 889 1119 1028 649 429
96 67 135 74 160 217 111 237 134 539 778 728 233 25 0 310 300 885 0 0 0 7 73 204 0 10 229 554 296 238 127 150 0 0 0 0 0 10 6 912 1085 502 160
134 117 163 25 117 339 186 317 275 383 754 619 471 138 24 15 943 682 184 10 0 0 20 484 0 0 282 707 269 0 0 0 0 0 0 1 10 0 0 65 9 27 666
190 181 146 40 84 320 283 273 363 247 375 372 397 327 185 234 798 974 408 93 0 0 0 181 607 291 137 111 739 15 0 0 0 0 0 0 18 0 0 0 0 511 355
169 236 188 121 139 179 154 256 264 355 445 239 348 844 341 205 474 771 461 163 30 0 0 0 182 792 98 0 244 967 183 289 86 0 0 0 0 0 32 3 0 59 124